{"data":{"norad_id":47404,"epoch":"2026-07-20T20:42:33.346080Z","epoch_age_seconds":5351113,"freshness":"OLD","line1":"1 47404U 21005BH  26201.86288595  .06854044  12303-4  64903-3 0  9998","line2":"2 47404  53.0236  67.8992 0013378 274.3070  85.6447 16.37445562304730","mean_motion":16.37445562,"eccentricity":0.0013378,"inclination_deg":53.0236,"raan_deg":67.8992,"arg_perigee_deg":274.307,"mean_anomaly_deg":85.6447,"bstar":0.00064903,"rev_number":30473,"period_min":87.941854887754,"perigee_km":163.84291145283,"apogee_km":181.370080751,"semimajor_km":6550.7434961019,"source":"CELESTRAK","updated_at":"2026-07-21T09:02:00.278559Z"}}